Regional Weather Roundup
Issued by NWS

Home | Current Version | Previous Version | Text Only | Print | Product List | Glossary Off
Versions: 1 2 3 4 5 6 7 8 9 10 11 12 13 14 15 16 17 18 19 20 21 22 23 24 25 26 27 28 29 30 31 32 33 34 35 36 37 38 39 40 41 42 43 44 45 46 47 48 49 50

000
ASUS43 KDMX 090406
RWRIA

WEATHER ROUNDUP FOR IOWA
NATIONAL WEATHER SERVICE DES MOINES IA
1000 PM CST THU DEC 08 2016

NOTE: "FAIR" INDICATES FEW OR NO CLOUDS BELOW 12,000 FEET WITH NO
SIGNIFICANT WEATHER AND/OR OBSTRUCTIONS TO VISIBILITY.

* - THESE STATIONS ARE NOT NWS STATIONS...THUS NOT UNDER NWS
QUALITY CONTROL.  THEY ALSO DO NOT REPORT WEATHER SUCH
AS PRECIPITATION OR FOG.

IAZ001>003-012>014-020>022-031>034-043>046-090500-
   NORTHWEST IOWA

CITY           SKY/WX    TMP DP  RH WIND       PRES   REMARKS
CARROLL *      CLEAR     14   9  79 NW13      30.58S WCI   0
CHEROKEE *     CLEAR     11   7  82 NW7       30.59S WCI   1
DENISON *      CLEAR     14   9  79 NW13      30.59R WCI   0
LE MARS *      CLEAR     10   5  79 NW7       30.63S WCI   0
ORANGE CITY *  CLEAR      9   7  92 NW9       30.58S WCI  -5
SHELDON *      CLEAR      9   7  92 NW12      30.56S WCI  -6
SIOUX CITY     CLEAR     14   6  70 NW10      30.64S WCI   1
SPENCER        CLEAR     10   6  84 NW17      30.57R WCI  -8
STORM LAKE *   CLEAR     12   7  79 NW13      30.56S WCI  -3
$$

IAZ055>058-069>071-079>083-090>094-090500-
   SOUTHWEST IOWA

CITY           SKY/WX    TMP DP  RH WIND       PRES   REMARKS
ATLANTIC *     CLEAR     16   9  73 NW10      30.61S WCI   3
AUDUBON *      CLEAR     14   9  79 W8        30.59S WCI   3
CLARINDA *     CLEAR     18   9  68 N9        30.65S WCI   6
COUNCIL BLFS * CLEAR     16   9  73 NW8       30.62S WCI   5
CRESTON *      CLEAR     12   7  79 NW8       30.59S WCI   1
HARLAN  *      CLEAR     14   9  79 NW12      30.64S WCI   0
LAMONI         CLEAR     13   8  81 W9        30.58S WCI   1
RED OAK *      CLEAR     16   9  73 NW9       30.63F WCI   4
SHENANDOAH *   CLEAR     16   9  73 NW3       30.65S
$$

IAZ047>049-059>061-072>074-084-090500-
   CENTRAL IOWA

CITY           SKY/WX    TMP DP  RH WIND       PRES   REMARKS
AMES           CLOUDY    19  12  74 NW14      30.57S WCI   6
ANKENY *       MOCLDY    18  10  73 NW16      30.59S WCI   3
BOONE *        CLOUDY    18  10  73 NW17      30.55S WCI   2
CHARITON *     CLEAR     16  10  79 NW9       30.57R WCI   4
DES MOINES     PTCLDY    19   9  65 NW14      30.58R WCI   6
GRINNELL*      CLOUDY    20  13  73 NW14      30.54S WCI   7
KNOXVILLE *    CLOUDY    19   9  63 NW13      30.55S WCI   7
MARSHALLTOWN   CLOUDY    19  11  70 NW18      30.53S WCI   4
NEWTON *       CLOUDY    21  12  68 NW16      30.54S WCI   7
PELLA *        CLOUDY    22  13  68 NW14G20   30.57R WCI   9
PERRY *          N/A     16  12  85 NW8       30.58S WCI   5
$$

IAZ004>006-015-016-023>025-035-036-090500-
   NORTH CENTRAL IOWA

CITY           SKY/WX    TMP DP  RH WIND       PRES   REMARKS
ALGONA *       FLURRIES  16  10  79 NW17      30.54R WCI   0
CLARION *      CLOUDY    18  10  73 NW17G24   30.54R WCI   2
ESTHERVILLE    FLURRIES  13   8  81 NW15      30.55R WCI  -3
FORT DODGE *   MOCLDY    14   5  67 NW7       30.57S WCI   4
MASON CITY     FLURRIES  15   8  73 NW16      30.53S WCI  -1
FOREST CITY *  CLOUDY    16  10  79 NW12G20   30.53R WCI   3
WEBSTER CITY * FLURRIES  18  12  79 NW16      30.54R WCI   3
IOWA FALLS *   FLURRIES  19  13  76 NW16      30.54R WCI   4
$$

IAZ007>011-017>019-026>030-037>042-050>054-066-090500-
   NORTHEAST IOWA

CITY           SKY/WX    TMP DP  RH WIND       PRES   REMARKS
CEDAR RAPIDS   CLOUDY    20  15  81 NW14      30.50S WCI   7
CHARLES CITY * CLOUDY    18  10  73 NW15      30.50S WCI   3
CLINTON *      FLURRIES  21  15  78 W16       30.48R WCI   7
DECORAH *      CLOUDY    18  14  86 W9G17     30.45R WCI   6
DUBUQUE        CLOUDY    19  13  77 W16       30.45R WCI   4
MONTICELLO *   CLOUDY    21  12  68 W16       30.48S WCI   7
OELWEIN *      CLOUDY    18  12  79 W15       30.49S WCI   3
WATERLOO       LGT SNOW  18  12  77 NW15      30.52S WCI   4
$$

IAZ064-065-067-068-078-090500-
   EAST CENTRAL IOWA

CITY           SKY/WX    TMP DP  RH WIND       PRES   REMARKS
DAVENPORT      CLOUDY    21  13  71 NW15      30.50S WCI   8
IOWA CITY      CLOUDY    23  15  71 NW16      30.54R WCI  10
MUSCATINE *    CLOUDY    25  18  74 NW7       30.54S WCI  17
QUAD CITIES    CLOUDY    22  10  60 NW14G22   30.50S WCI   9
$$

IAZ062-063-075>077-085>089-095>099-090500-
   SOUTHEAST IOWA

CITY           SKY/WX    TMP DP  RH WIND       PRES   REMARKS
BURLINGTON     CLOUDY    22  14  71 W9        30.53R WCI  12
FAIRFIELD *    CLOUDY    21  12  68 W10G16    30.54S WCI  10
FORT MADISON * CLOUDY    21  12  68 W9        30.54S WCI  11
KEOKUK *       CLOUDY    23  14  68 W9        30.55S WCI  13
OSKALOOSA *    CLOUDY    21  14  73 NW15G21   30.55S WCI   8
CENTERVILLE *    N/A     16  10  79 W9        30.58R WCI   4
OTTUMWA        CLOUDY    21  11  65 W14       30.54R WCI   8
WASHINGTON *   CLOUDY    23  12  63 NW17G26   30.54S WCI   9
$$

ABBREVIATIONS USED IN REMARKS
   TC - TEMPERATURES IN CELSIUS
  WCI - WIND CHILL INDEX
   HX - HEAT INDEX
  VSB - VISIBILITY
$$




USA.gov is the U.S. government's official web portal to all federal, state and local government web resources and services.